Weather observations for the past three days for
Philip, Philip Airport
Imperial (Metric)
Date Time (mdt) Wind (mph) Vis. (mi.) Weather Sky Cond. Temperature (ºF) Relative Humidity Wind Chill (°F) Heat Index (°F) Pressure Precipitation (in)
Air Dwpt 6 hour altimeter (in) sea level (mb) 1 hr 3 hr 6 hr
Max. Min.
10 14:55 W 3 10.00 Partly Cloudy SCT070 72 36 27% 30.12 1019.3
10 13:55 N 7 G 20 10.00 Fair CLR 70 35.1 28% 30.14 1020.0
10 12:55 N 10 10.00 Fair CLR 69.1 36 30% 30.15 1020.5
10 11:55 NW 9 10.00 Partly Cloudy SCT100 SCT110 66.9 35.1 66.9 44.1 31% 30.16 1021.2
10 10:55 N 3 10.00 Partly Cloudy SCT110 64.9 36 34% 30.17 1021.2
10 09:55 Vrbl 5 10.00 A Few Clouds FEW120 64 35.1 34% 30.16 1021.3
10 08:55 NE 5 10.00 Partly Cloudy SCT120 60.1 36 41% 30.16 1021.2
10 07:55 W 6 10.00 Partly Cloudy SCT120 54 37 53% 30.16 1021.0
10 06:55 W 6 10.00 Fair CLR 48.9 36 61% 47 30.15 1020.5
10 05:55 W 7 10.00 Fair CLR 44.1 33.1 48.9 42.1 65% 41 30.13 1020.2
10 04:55 Calm 10.00 Fair CLR 44.1 33.1 65% 30.12 1019.8
10 03:55 Calm 10.00 Overcast OVC075 46.9 34 61% 30.11 1019.2
10 02:55 W 8 10.00 Mostly Cloudy BKN080 46.9 33.1 59% 44 30.11 1019.0
10 01:55 W 7 10.00 Overcast OVC075 48 32 54% 45 30.1 1018.9
10 00:55 W 8 10.00 Overcast BKN075 OVC110 44.1 30.9 60% 40 30.1 1019.0
09 23:55 W 7 10.00 Mostly Cloudy SCT075 BKN100 43 30.9 64 43 63% 39 30.09 1018.8
09 22:55 W 5 10.00 Mostly Cloudy BKN080 44.1 30.9 60% 42 30.09 1018.9
09 21:55 W 6 10.00 Fair CLR 44.1 30.9 60% 41 30.08 1018.7
09 20:55 N 6 10.00 Fair CLR 48 30 50% 46 30.06 1018.1
09 19:55 N 5 10.00 Fair CLR 53.1 30.9 43% 30.03 1016.8
09 18:55 N 12 10.00 Fair CLR 62.1 30 30% 30.02 1016.2
09 17:55 N 13 G 24 10.00 Fair CLR 64 30 66.9 60.1 28% 30 1015.7
09 16:55 N 20 G 25 10.00 Fair CLR 66 30 26% 30 1015.3
09 15:55 N 22 G 32 10.00 Fair and Breezy CLR 66 28.9 25% 29.99 1014.8
09 14:55 N 20 G 30 10.00 Fair CLR 66 27 23% 29.99 1014.7
09 13:55 N 20 G 28 10.00 Fair CLR 64 30 28% 29.99 1014.8
09 12:55 NE 8 G 22 10.00 Partly Cloudy SCT080 63 30.9 30% 29.99 1015.0
09 11:55 N 12 G 20 10.00 Mostly Cloudy BKN075 60.1 30.9 61 44.1 33% 29.98 1014.9
09 10:55 NE 9 10.00 Mostly Cloudy BKN080 57.9 39 50% 29.98 1014.9
09 09:55 N 12 10.00 Overcast FEW024 OVC075 55 41 59% 29.97 1014.4
09 08:55 N 13 G 18 10.00 Overcast SCT023 OVC080 53.1 42.1 66% 29.95 1013.8
09 07:55 NE 9 10.00 Partly Cloudy SCT090 53.1 41 64% 29.91 1012.3
09 06:55 N 7 10.00 Fair CLR 48 39.9 74% 45 29.87 1010.8
09 05:55 N 6 10.00 A Few Clouds FEW110 44.1 37 59 44.1 76% 41 29.83 1009.5
09 04:55 E 8 10.00 Partly Cloudy SCT100 48 37.9 68% 45 29.8 1008.1
09 03:55 E 10 10.00 Mostly Cloudy BKN120 51.1 37 59% 29.77 1007.0
09 02:55 NE 22 G 33 10.00 A Few Clouds and Breezy FEW110 55 34 45% 29.79 1007.5
09 01:55 W 10 G 18 10.00 Fair CLR 52 28.9 41% 29.73 1005.4
09 00:55 NW 8 10.00 Fair CLR 48.9 28.9 46% 46 29.73 1005.8
08 23:55 NW 7 10.00 Fair CLR 52 28.9 72 50 41% 29.74 1005.8
08 22:55 W 5 10.00 Fair CLR 52 30 43% 29.75 1006.3
08 21:55 W 3 10.00 Partly Cloudy SCT110 55 28.9 37% 29.77 1007.1
08 20:55 Calm 10.00 Fair CLR 55 28.9 37% 29.76 1006.9
08 19:55 NE 6 10.00 Fair CLR 59 30 33% 29.76 1007.0
08 18:55 N 8 10.00 Fair CLR 69.1 28 22% 29.76 1007.1
08 17:55 NW 13 G 21 10.00 Fair CLR 72 26.1 75 72 18% 29.77 1007.3
08 16:55 NW 17 G 26 10.00 Fair CLR 73 27 18% 29.78 1007.9
08 15:55 NW 22 G 28 10.00 Fair and Breezy CLR 73.9 28 18% 29.79 1008.2
08 14:55 N 23 G 35 10.00 Fair and Breezy CLR 73 28 19% 29.81 1008.5
08 13:55 NW 20 G 40 10.00 Fair CLR 73 28 19% 29.81 1008.7
08 12:55 NW 21 G 37 10.00 Fair and Breezy CLR 73 30.9 21% 29.81 1008.5
08 11:55 NW 20 G 39 10.00 Fair CLR 75 30.9 75 43 20% 76 29.81 1008.6
08 10:55 NW 26 G 38 10.00 Fair and Windy CLR 73 30.9 21% 29.81 1008.6
08 09:55 NW 18 G 32 10.00 Fair CLR 69.1 37 31% 29.82 1009.2
08 08:55 NW 23 10.00 Fair and Breezy CLR 66 39 37% 29.84 1009.7
08 07:55 W 17 10.00 Fair CLR 57.9 39.9 51% 29.84 1009.9
08 06:55 SW 9 10.00 A Few Clouds FEW085 46.9 36 66% 43 29.84 1010.0
08 05:55 SW 8 10.00 Fair CLR 44.1 35.1 46.9 39.9 71% 40 29.83 1009.6
08 04:55 W 10 10.00 Fair CLR 41 36 82% 35 29.82 1009.2
08 03:55 W 9 10.00 Fair CLR 42.1 36 79% 37 29.81 1008.9
08 02:55 W 7 10.00 Fair CLR 44.1 33.1 65% 41 29.8 1008.7
08 01:55 W 8 10.00 Fair CLR 45 28.9 54% 41 29.81 1008.7
08 00:55 NW 3 10.00 Fair CLR 45 28 52% 29.81 1009.1
07 23:55 Calm 10.00 Fair CLR 45 28 66 44.1 52% 29.82 1009.4
07 22:55 SW 3 10.00 Fair CLR 48.9 28 44% 29.82 1009.5
07 21:55 Calm 10.00 Mostly Cloudy BKN110 46.9 28 48% 29.83 1009.9
07 20:55 NE 6 10.00 Fair CLR 46.9 30 52% 45 29.82 1010.0
07 19:55 E 5 10.00 Fair CLR 55 32 42% 29.8 1009.1
07 18:55 NE 7 10.00 Fair CLR 62.1 28.9 29% 29.78 1008.8
07 17:55 Calm 10.00 Fair CLR 66 25 69.1 62.1 21% 29.78 1008.9
07 16:55 W 8 10.00 Fair CLR 68 25 20% 29.78 1008.8
07 15:55 W 8 G 18 10.00 Fair CLR 66.9 23 19% 29.8 1009.3
Date Time (mdt) Wind (mph) Vis. (mi.) Weather Sky Cond. Air Dwpt Max. Min. Relative Humidity Wind Chill (°F) Heat Index (°F) altimeter (in) sea level (mb) 1 hr 3 hr 6 hr
6 hour
Temperature (ºF) Pressure Precipitation (in)